| time (UTC) | temp F | wind direction | speed MPH | gust MPH | rain 1hr in | rain 24hr in | rain mn in | humidity % | barometer mb |
| 20260902041524 | 81 | 213 | 1.0 | 4.0 | 0.00 | 0.00 | 0.00 | 81 | 1017.5 |
| 20260902040023 | 81 | 205 | 1.0 | 4.0 | 0.00 | 0.00 | 0.00 | 81 | 1017.3 |
| 20260902034524 | 82 | 203 | 1.0 | 5.0 | 0.00 | 0.00 | 0.00 | 80 | 1017.3 |
| 20260902033023 | 82 | 221 | 1.0 | 8.0 | 0.00 | 0.00 | 0.00 | 80 | 1017.2 |
| 20260902031522 | 82 | 209 | 2.0 | 7.0 | 0.00 | 0.00 | 0.00 | 80 | 1017.2 |
| 20260902030021 | 82 | 200 | 3.0 | 9.0 | 0.00 | 0.00 | 0.00 | 80 | 1017.2 |
| 20260902024521 | 82 | 211 | 2.0 | 7.0 | 0.00 | 0.00 | 0.00 | 80 | 1017.2 |
| 20260902023021 | 82 | 200 | 2.0 | 9.0 | 0.00 | 0.00 | 0.00 | 80 | 1017.2 |
| 20260902021519 | 82 | 214 | 2.0 | 5.0 | 0.00 | 0.00 | 0.00 | 79 | 1017.3 |
| 20260902020018 | 82 | 238 | 1.0 | 8.0 | 0.00 | 0.00 | 0.00 | 79 | 1017.4 |
| 20260902014518 | 82 | 218 | 2.0 | 7.0 | 0.00 | 0.00 | 0.00 | 79 | 1017.2 |
| 20260902013017 | 82 | 198 | 2.0 | 8.0 | 0.00 | 0.00 | 0.00 | 79 | 1017.2 |
| 20260902011517 | 83 | 218 | 3.0 | 11.0 | 0.00 | 0.00 | 0.00 | 79 | 1017.2 |
| 20260902010016 | 83 | 181 | 5.0 | 9.0 | 0.00 | 0.00 | 0.00 | 79 | 1017.2 |
| 20260902004517 | 83 | 213 | 3.0 | 8.0 | 0.00 | 0.00 | 0.00 | 79 | 1017.2 |
| 20260902003022 | 83 | 207 | 3.0 | 9.0 | 0.00 | 0.00 | 0.00 | 78 | 1017.2 |
| 20260902001515 | 83 | 200 | 3.0 | 7.0 | 0.00 | 0.00 | 0.00 | 78 | 1017.2 |
| 20260902000014 | 83 | 218 | 3.0 | 8.0 | 0.00 | 0.00 | 0.00 | 76 | 1017.2 |
| 20260901234514 | 83 | 215 | 2.0 | 10.0 | 0.00 | 0.00 | 0.00 | 76 | 1017.2 |
| 20260901233014 | 84 | 188 | 2.0 | 9.0 | 0.00 | 0.00 | 0.00 | 75 | 1017.2 |
| 20260901231522 | 85 | 213 | 3.0 | 8.0 | 0.00 | 0.00 | 0.00 | 74 | 1017.2 |
| 20260901230013 | 85 | 214 | 1.0 | 7.0 | 0.00 | 0.00 | 0.00 | 72 | 1017.2 |
| 20260901224512 | 85 | 198 | 2.0 | 7.0 | 0.00 | 0.00 | 0.00 | 72 | 1017.2 |
| 20260901223012 | 85 | 199 | 2.0 | 7.0 | 0.00 | 0.00 | 0.00 | 72 | 1017.2 |
| 20260901221511 | 86 | 202 | 2.0 | 7.0 | 0.00 | 0.00 | 0.00 | 71 | 1017.3 |
| 20260901220010 | 87 | 161 | 4.0 | 11.0 | 0.00 | 0.00 | 0.00 | 69 | 1017.4 |
| 20260901214510 | 87 | 282 | 2.0 | 10.0 | 0.00 | 0.00 | 0.00 | 69 | 1017.3 |
| 20260901213009 | 87 | 184 | 4.0 | 10.0 | 0.00 | 0.00 | 0.00 | 70 | 1017.4 |
| 20260901211510 | 87 | 196 | 1.0 | 10.0 | 0.00 | 0.00 | 0.00 | 69 | 1017.3 |
| 20260901210008 | 87 | 150 | 3.0 | 8.0 | 0.00 | 0.00 | 0.00 | 68 | 1017.5 |
| 20260901204510 | 88 | 151 | 2.0 | 7.0 | 0.00 | 0.00 | 0.00 | 67 | 1017.6 |
| 20260901203008 | 88 | 246 | 3.0 | 8.0 | 0.00 | 0.00 | 0.00 | 67 | 1017.5 |
| 20260901201509 | 88 | 123 | 5.0 | 10.0 | 0.00 | 0.00 | 0.00 | 66 | 1017.5 |
| 20260901200010 | 89 | 158 | 3.0 | 9.0 | 0.00 | 0.00 | 0.00 | 67 | 1017.7 |
| 20260901194507 | 89 | 215 | 5.0 | 10.0 | 0.00 | 0.00 | 0.00 | 64 | 1017.7 |
| 20260901193005 | 90 | 167 | 2.0 | 6.0 | 0.00 | 0.00 | 0.00 | 63 | 1017.9 |
| 20260901191505 | 90 | 144 | 5.0 | 10.0 | 0.00 | 0.00 | 0.00 | 62 | 1017.9 |
| 20260901190004 | 91 | 165 | 3.0 | 8.0 | 0.00 | 0.00 | 0.00 | 62 | 1018.1 |
| 20260901184508 | 91 | 142 | 3.0 | 8.0 | 0.00 | 0.00 | 0.00 | 64 | 1018.2 |
| 20260901183004 | 91 | 146 | 3.0 | 7.0 | 0.00 | 0.00 | 0.00 | 64 | 1018.2 |
| 20260901181504 | 91 | 150 | 3.0 | 6.0 | 0.00 | 0.00 | 0.00 | 64 | 1018.3 |
| 20260901174601 | 91 | 188 | 4.0 | 8.0 | 0.00 | 0.00 | 0.00 | 66 | 1018.5 |
| 20260901173059 | 91 | 143 | 4.0 | 8.0 | 0.00 | 0.00 | 0.00 | 66 | 1018.5 |
| 20260901171602 | 90 | 207 | 4.0 | 8.0 | 0.00 | 0.00 | 0.00 | 67 | 1018.6 |
| 20260901170100 | 89 | 156 | 4.0 | 8.0 | 0.00 | 0.00 | 0.00 | 68 | 1018.7 |
| 20260901164602 | 90 | 144 | 5.0 | 9.0 | 0.00 | 0.00 | 0.00 | 66 | 1018.8 |
| 20260901163055 | 90 | 159 | 3.0 | 9.0 | 0.00 | 0.00 | 0.00 | 68 | 1018.8 |
| 20260901161610 | 90 | 134 | 4.0 | 7.0 | 0.00 | 0.00 | 0.00 | 68 | 1018.9 |
| 20260901160108 | 89 | 167 | 2.0 | 7.0 | 0.00 | 0.00 | 0.00 | 69 | 1018.9 |
| 20260901154548 | 88 | 145 | 4.0 | 8.0 | 0.00 | 0.00 | 0.00 | 70 | 1019.0 |
| 20260901153055 | 87 | 7 | 0.0 | 2.0 | 0.00 | 0.00 | 0.00 | 66 | 1019.1 |
| 20260901151543 | 86 | 7 | 0.0 | 3.0 | 0.00 | 0.00 | 0.00 | 67 | 1019.2 |
| 20260901150041 | 86 | 7 | 1.0 | 4.0 | 0.00 | 0.00 | 0.00 | 71 | 1019.3 |
| 20260901144539 | 85 | 320 | 3.0 | 6.0 | 0.00 | 0.00 | 0.00 | 71 | 1019.3 |
| 20260901143043 | 84 | 301 | 3.0 | 7.0 | 0.00 | 0.00 | 0.00 | 73 | 1019.3 |
| 20260901141541 | 84 | 47 | 0.0 | 7.0 | 0.00 | 0.00 | 0.00 | 78 | 1019.4 |
| 20260901140039 | 83 | 315 | 4.0 | 6.0 | 0.00 | 0.00 | 0.00 | 75 | 1019.3 |
| 20260901134533 | 83 | 325 | 2.0 | 5.0 | 0.00 | 0.00 | 0.00 | 79 | 1019.3 |
| 20260901133027 | 82 | 336 | 0.0 | 5.0 | 0.00 | 0.00 | 0.00 | 79 | 1019.3 |
| 20260901131526 | 81 | 316 | 1.0 | 5.0 | 0.00 | 0.00 | 0.00 | 83 | 1019.3 |
| 20260901130027 | 80 | 322 | 1.0 | 3.0 | 0.00 | 0.00 | 0.00 | 87 | 1019.3 |
| 20260901124531 | 79 | 322 | 2.0 | 5.0 | 0.00 | 0.00 | 0.00 | 88 | 1019.2 |
| 20260901123037 | 79 | 328 | 2.0 | 5.0 | 0.00 | 0.00 | 0.00 | 90 | 1019.2 |
| 20260901121521 | 78 | 328 | 1.0 | 3.0 | 0.00 | 0.00 | 0.00 | 90 | 1019.1 |
| 20260901120030 | 78 | 327 | 1.0 | 3.0 | 0.00 | 0.00 | 0.00 | 90 | 1018.8 |
| 20260901114518 | 77 | 331 | 2.0 | 5.0 | 0.00 | 0.00 | 0.00 | 90 | 1018.8 |
| 20260901113016 | 77 | 333 | 1.0 | 5.0 | 0.00 | 0.00 | 0.00 | 90 | 1018.5 |
| 20260901111520 | 77 | 332 | 2.0 | 6.0 | 0.00 | 0.00 | 0.00 | 90 | 1018.4 |
| 20260901110014 | 77 | 326 | 2.0 | 5.0 | 0.00 | 0.00 | 0.00 | 90 | 1018.2 |
| 20260901104515 | 77 | 323 | 1.0 | 3.0 | 0.00 | 0.00 | 0.00 | 90 | 1018.2 |
| 20260901103014 | 76 | 323 | 1.0 | 3.0 | 0.00 | 0.00 | 0.00 | 90 | 1018.1 |
| 20260901101512 | 76 | 323 | 1.0 | 3.0 | 0.00 | 0.00 | 0.00 | 90 | 1018.1 |
| 20260901100012 | 77 | 323 | 1.0 | 4.0 | 0.00 | 0.00 | 0.00 | 90 | 1018.1 |
| 20260901094513 | 77 | 323 | 1.0 | 6.0 | 0.00 | 0.00 | 0.00 | 90 | 1017.8 |
| 20260901093011 | 77 | 320 | 3.0 | 5.0 | 0.00 | 0.00 | 0.00 | 90 | 1018.0 |
| 20260901091509 | 77 | 320 | 2.0 | 4.0 | 0.00 | 0.00 | 0.00 | 90 | 1018.1 |
| 20260901090013 | 77 | 320 | 0.0 | 3.0 | 0.00 | 0.00 | 0.00 | 89 | 1018.2 |
| 20260901084510 | 77 | 320 | 0.0 | 1.0 | 0.00 | 0.00 | 0.00 | 89 | 1018.2 |
| 20260901083008 | 77 | 320 | 1.0 | 4.0 | 0.00 | 0.00 | 0.00 | 90 | 1018.3 |
| 20260901081506 | 77 | 320 | 3.0 | 4.0 | 0.00 | 0.00 | 0.00 | 90 | 1018.2 |
| 20260901080010 | 77 | 320 | 0.0 | 3.0 | 0.00 | 0.00 | 0.00 | 89 | 1018.3 |
| 20260901074504 | 77 | 320 | 1.0 | 3.0 | 0.00 | 0.00 | 0.00 | 89 | 1018.3 |
| 20260901073003 | 78 | 319 | 3.0 | 5.0 | 0.00 | 0.00 | 0.00 | 89 | 1018.3 |
| 20260901071502 | 78 | 226 | 0.0 | 0.0 | 0.00 | 0.00 | 0.00 | 89 | 1018.3 |
| 20260901070001 | 78 | 201 | 0.0 | 0.0 | 0.00 | 0.00 | 0.00 | 88 | 1018.3 |
| 20260901064600 | 78 | 166 | 0.0 | 0.0 | 0.00 | 0.00 | 0.00 | 88 | 1018.3 |
| 20260901063109 | 78 | 166 | 0.0 | 0.0 | 0.00 | 0.00 | 0.00 | 88 | 1018.5 |
| 20260901061624 | 78 | 166 | 0.0 | 0.0 | 0.00 | 0.00 | 0.00 | 88 | 1018.7 |
| 20260901060100 | 78 | 166 | 0.0 | 0.0 | 0.00 | 0.00 | 0.00 | 88 | 1018.7 |
| 20260901054555 | 79 | 166 | 0.0 | 0.0 | 0.00 | 0.00 | 0.00 | 88 | 1018.8 |
| 20260901053107 | 79 | 166 | 0.0 | 0.0 | 0.00 | 0.00 | 0.00 | 87 | 1018.9 |
| 20260901051552 | 79 | 166 | 0.0 | 0.0 | 0.00 | 0.00 | 0.00 | 87 | 1019.0 |
| 20260901050052 | 79 | 166 | 0.0 | 0.0 | 0.00 | 0.00 | 0.00 | 87 | 1019.1 |
| 20260901044559 | 79 | 166 | 0.0 | 0.0 | 0.00 | 0.00 | 0.00 | 86 | 1019.2 |
| 20260901043052 | 80 | 166 | 0.0 | 0.0 | 0.00 | 0.00 | 0.00 | 87 | 1019.1 |